Total_Precipitation_Accumulation
1.86 2.18 2.64 3.34 3.79 3.97 4.08 4.25 4.26 4.31 4.33 4.32 4.34 4.53 4.71 4.74 4.71 4.83 4.86 4.73 4.65 4.79 5.09 5.12 4.97 4.68 4.38 4.17 4.17 4.18 3.94 3.64 3.50 3.54 3.34 2.97 2.63 2.54 2.45 2.40 2.37 2.20 2.19
1.75 2.18 2.64 3.10 3.39 3.74 3.96 4.21 4.23 4.37 4.62 5.01 5.52 5.81 5.93 5.79 5.62 5.50 5.42 5.28 5.17 5.27 5.37 5.44 5.12 4.78 4.60 4.33 4.09 4.05 3.88 3.62 3.57 3.61 3.65 3.25 2.96 2.48 2.15 2.23 2.23 2.16 2.18
1.74 2.06 2.28 2.66 2.96 3.35 3.70 4.00 4.34 4.73 5.21 5.88 6.68 7.01 6.76 6.32 6.09 5.75 5.68 5.45 5.23 5.20 5.31 5.05 4.83 4.64 4.46 4.26 4.05 4.05 4.00 3.65 3.54 3.64 3.85 3.51 3.14 2.76 2.41 2.19 2.11 2.18 2.21
1.73 1.86 2.10 2.39 2.60 2.98 3.46 3.95 4.51 5.09 5.73 6.34 6.82 7.06 6.94 6.63 6.29 5.82 5.42 5.04 4.74 4.54 4.44 4.33 4.13 4.07 3.96 3.80 3.63 3.67 3.74 3.64 3.40 3.34 3.18 3.10 2.95 2.88 2.62 2.37 2.20 2.17 2.19
1.60 1.70 1.88 2.13 2.45 2.90 3.38 3.87 4.39 5.11 5.61 6.15 6.57 6.83 6.83 6.69 6.27 5.55 4.88 4.46 4.13 3.88 3.59 3.39 3.30 3.33 3.32 3.15 2.98 2.99 3.05 3.03 3.00 2.98 2.82 2.77 2.72 2.65 2.53 2.46 2.40 2.32 2.15
1.69 1.71 1.76 1.94 2.40 2.83 3.34 3.71 4.05 4.78 5.48 5.99 6.36 6.67 6.63 6.39 5.74 5.00 4.41 4.04 3.74 3.50 3.22 3.03 2.90 2.87 2.82 2.66 2.54 2.53 2.56 2.58 2.61 2.70 2.72 2.65 2.55 2.45 2.45 2.31 2.25 2.26 2.12
1.59 1.61 1.81 1.97 2.49 2.89 3.19 3.45 3.70 4.13 4.66 5.13 5.47 5.69 5.73 5.47 5.02 4.56 4.07 3.70 3.46 3.20 2.87 2.53 2.38 2.33 2.37 2.38 2.35 2.34 2.29 2.32 2.35 2.32 2.35 2.38 2.30 2.32 2.38 2.37 2.23 2.15 2.06
1.54 1.55 1.78 2.02 2.20 2.46 2.72 3.02 3.23 3.48 3.74 4.00 4.27 4.26 4.27 4.25 4.04 3.66 3.22 2.93 2.63 2.46 2.31 2.10 1.98 1.96 2.02 2.06 2.11 2.05 1.95 1.98 2.10 2.12 2.22 2.20 2.14 2.23 2.28 2.38 2.46 2.43 2.22
1.51 1.59 1.78 1.92 1.99 2.14 2.36 2.56 2.69 2.86 2.93 2.90 2.90 2.98 2.98 3.02 3.00 2.84 2.54 2.20 1.93 1.78 1.75 1.74 1.72 1.59 1.63 1.75 1.81 1.75 1.71 1.79 1.84 1.88 1.98 2.03 2.03 2.10 2.10 2.18 2.37 2.62 2.56
1.52 1.61 1.73 1.90 1.99 2.00 2.16 2.28 2.27 2.30 2.36 2.40 2.31 2.22 2.30 2.36 2.35 2.31 2.12 1.91 1.71 1.55 1.46 1.46 1.42 1.34 1.34 1.46 1.56 1.56 1.62 1.72 1.68 1.66 1.70 1.71 1.75 1.97 2.05 2.10 2.24 2.48 2.64
1.63 1.71 1.68 1.71 1.72 1.76 1.80 1.88 1.90 1.91 1.93 1.95 1.97 1.96 1.90 1.86 1.85 1.89 1.84 1.71 1.60 1.47 1.39 1.30 1.30 1.31 1.25 1.27 1.35 1.34 1.37 1.50 1.53 1.48 1.50 1.53 1.65 1.79 1.84 1.95 2.07 2.30 2.57
1.73 1.80 1.75 1.64 1.64 1.72 1.75 1.75 1.76 1.73 1.74 1.72 1.76 1.82 1.69 1.61 1.60 1.62 1.60 1.47 1.43 1.39 1.31 1.24 1.22 1.20 1.18 1.17 1.17 1.14 1.16 1.27 1.30 1.32 1.37 1.29 1.36 1.55 1.68 1.81 1.89 2.03 2.23
1.88 2.00 1.92 1.73 1.67 1.66 1.64 1.53 1.52 1.52 1.38 1.35 1.47 1.58 1.46 1.36 1.39 1.38 1.37 1.35 1.30 1.26 1.16 1.13 1.07 1.02 1.05 1.10 1.12 1.08 1.07 1.07 1.09 1.17 1.24 1.27 1.39 1.48 1.61 1.73 1.79 1.95 1.99
1.83 1.96 1.96 1.76 1.72 1.59 1.53 1.38 1.29 1.30 1.26 1.23 1.25 1.31 1.33 1.29 1.25 1.24 1.23 1.19 1.13 1.08 1.00 0.94 0.93 0.95 0.93 0.91 0.96 0.97 0.99 1.03 1.05 1.09 1.13 1.20 1.32 1.46 1.66 1.70 1.80 1.95 2.07
1.84 1.96 1.89 1.70 1.69 1.66 1.57 1.35 1.25 1.25 1.25 1.28 1.29 1.26 1.24 1.15 1.15 1.17 1.15 1.05 1.01 0.94 0.90 0.88 0.87 0.87 0.85 0.77 0.81 0.92 0.96 1.07 1.12 1.14 1.13 1.10 1.17 1.34 1.48 1.54 1.75 2.00 2.16
1.89 1.85 1.78 1.72 1.71 1.69 1.63 1.42 1.27 1.21 1.24 1.32 1.33 1.28 1.24 1.17 1.13 1.15 1.15 1.09 1.07 1.03 0.94 0.92 0.88 0.82 0.71 0.73 0.75 0.80 0.93 1.04 1.09 1.18 1.17 1.04 1.01 1.04 1.11 1.21 1.36 1.64 1.89
2.14 2.06 1.92 1.90 1.91 1.79 1.61 1.52 1.35 1.27 1.25 1.27 1.25 1.29 1.29 1.20 1.12 1.07 1.16 1.16 1.16 1.07 1.00 0.95 0.89 0.84 0.75 0.69 0.63 0.64 0.77 0.97 1.07 1.15 1.18 1.00 0.86 0.99 1.08 1.10 1.10 1.23 1.45
2.15 2.07 1.97 1.98 1.92 1.79 1.69 1.60 1.43 1.30 1.24 1.21 1.14 1.16 1.20 1.21 1.15 1.13 1.15 1.17 1.21 1.19 1.06 0.94 0.91 0.91 0.72 0.65 0.61 0.60 0.71 0.89 0.96 0.99 1.03 1.09 1.08 1.01 1.05 1.10 1.21 1.38 1.48
1.96 1.94 1.91 1.94 1.86 1.73 1.63 1.57 1.45 1.27 1.13 1.11 1.10 1.05 1.03 1.03 1.04 1.04 1.10 1.23 1.26 1.18 1.02 0.92 0.94 0.90 0.73 0.66 0.63 0.62 0.73 0.86 0.89 0.83 0.82 0.87 0.92 0.90 0.96 1.15 1.39 1.58 1.75
1.74 1.72 1.69 1.70 1.71 1.65 1.56 1.53 1.48 1.32 1.11 0.98 0.93 0.94 0.99 0.98 0.98 1.02 1.10 1.11 1.16 1.14 0.96 0.86 0.85 0.80 0.71 0.64 0.58 0.61 0.68 0.81 0.84 0.89 0.85 0.88 0.89 0.89 1.01 1.21 1.54 1.75 1.84
1.63 1.51 1.41 1.40 1.43 1.43 1.40 1.38 1.31 1.17 0.93 0.82 0.80 0.83 0.85 0.86 0.86 0.97 1.02 1.01 0.99 1.03 1.00 0.91 0.84 0.76 0.65 0.57 0.55 0.56 0.59 0.69 0.80 0.86 0.92 0.96 0.96 0.92 1.03 1.24 1.49 1.71 1.77
1.54 1.39 1.32 1.21 1.14 1.11 1.19 1.25 1.12 0.91 0.79 0.74 0.72 0.72 0.72 0.66 0.67 0.88 0.96 0.96 1.01 0.98 0.94 0.97 0.93 0.78 0.65 0.51 0.43 0.43 0.48 0.57 0.82 0.94 0.94 0.96 0.97 0.96 1.08 1.21 1.50 1.78 1.91
1.36 1.22 1.11 1.00 0.91 0.97 1.04 1.02 0.93 0.78 0.68 0.72 0.76 0.72 0.66 0.68 0.67 0.72 0.79 0.86 0.95 0.89 0.82 0.82 0.80 0.70 0.59 0.49 0.36 0.31 0.35 0.47 0.62 0.81 0.96 0.95 0.90 1.03 1.29 1.47 1.65 1.86 2.01
1.20 1.06 1.02 0.93 0.89 0.87 0.81 0.78 0.67 0.66 0.68 0.75 0.79 0.76 0.73 0.72 0.65 0.61 0.56 0.58 0.65 0.69 0.74 0.74 0.69 0.63 0.57 0.44 0.35 0.33 0.35 0.42 0.52 0.67 0.87 1.02 1.08 1.22 1.51 1.75 1.88 1.96 1.93
1.04 0.93 0.98 0.95 0.88 0.78 0.71 0.64 0.59 0.61 0.76 0.80 0.75 0.72 0.67 0.63 0.60 0.52 0.46 0.44 0.47 0.54 0.58 0.59 0.60 0.58 0.48 0.37 0.36 0.35 0.35 0.41 0.50 0.63 0.85 1.04 1.15 1.36 1.58 1.71 1.73 1.73 1.68
0.86 0.83 0.87 0.88 0.82 0.73 0.69 0.60 0.53 0.53 0.65 0.72 0.70 0.63 0.59 0.55 0.49 0.48 0.46 0.39 0.36 0.39 0.39 0.37 0.36 0.37 0.38 0.36 0.33 0.34 0.39 0.45 0.53 0.65 0.93 1.13 1.21 1.39 1.53 1.63 1.60 1.52 1.48